Location: Ladirat
(44.8151°N, 1.9702°E)
Time: 15:34:44
(UTC+00:00)

Aureole 1 Rocket - Pass Details

Date: 15 May 2026
Orbit: 372 x 1148 km, 73.9° (Epoch: 10 June)

Event Time Altitude Azimuth Distance (km) Brightness Sun altitude
Rises 22:15:54 0° 339° (NNW) 3,359 8.3 -22.7°
Reaches altitude 10° 22:18:09 10° 340° (NNW) 2,530 7.3 -22.9°
Maximum altitude 22:24:08 82° 69° (ENE) 1,013 4.0 -23.3°
Enters shadow 22:26:16 47° 151° (SSE) 1,343 4.2 -23.4°
